User: anonymous   Login
Location: Unspecified
(0.0000°N, 0.0000°E)
Time: 06:43:13
(UTC+02:00)
Language:

Cosmos 1943 Rocket - Orbit

View from above orbital plane
View from above orbital plane
View from above satellite
View from above satellite

Ground track
Ground track

The orbit data is extracted from the following two-line orbital elements,

1 19120U 88039B   17207.21104199 -.00000020 +00000-0 +13241-4 0  9993
2 19120 071.0122 242.4677 0020279 132.4404 227.8440 14.19171705511659
Epoch (UTC): 26 July 2017 05:03:54
Eccentricity: 0.0020279
inclination: 71.0122°
perigee height: 813 km
apogee height: 843 km
right ascension of ascending node: 242.4677°
argument of perigee: 132.4404°
revolutions per day: 14.19171705
mean anomaly at epoch: 227.8440°
orbit number at epoch: 51165

The dashed part of the orbit path shows where the satellite is in the earth's shadow,  

DLR